sat.trackr.live / text

‹ back to catalog

STARLINK-36136

NORAD 66967 · 2025-288J

PAYLOAD ACTIVE UNKNOWN

§ Identity

Operator
Country
US
Launch date
2025-12-08
Launch site
AFETR
Launch vehicle
Mass (kg)
RCS (m²)

Purposes: comms

External: N2YO · Heavens-Above · Gunter

§ Orbital elements

Epoch: 2026-05-25T03:52:22.101024Z

Period
94.27 min
Inclination
42.9983°
Eccentricity
0.0000421
Mean motion
15.27578231 rev/d
Perigee alt
482.8 km
Apogee alt
483.3 km
Semi-major
6,861.2 km
B*
7.5574e-4
RAAN
311.5061°
Arg perigee
331.7832°
Mean anomaly
28.2997°
Rev number
2,698

§ Raw data

STARLINK-361361 66967U 25288J   26145.16136691  .00020591  00000+0  75574-3 0  99972 66967  42.9983 311.5061 0000421 331.7832  28.2997 15.27578231 26985

JSON: /api/v1/satellites/66967 · /tle

For live sub-satellite position, see the globe view (requires WebGL).

§ Visibility from observer

Set your observer location to see the next 7 days of passes ≥ 10°. The values pass through the URL so the page stays shareable.

No JS? Fill the form by hand. The geolocation button needs JavaScript.